Location: Star Dogged Moon Observatory
(29.7756°N, 82.0783°W)
Time: 03:10:22
(UTC-05:00)

Amateur Radio Satellites - All Passes

Search period start: 08 February 2016 02:40
Search period end: 09 February 2016 02:40
Location: Star Dogged Moon Observatory, 29.7756°N, 82.0783°W

Satellite Date Start Highest point End Downlink Frequencies (MHz)
Time Altitude Azimuth
ITUPSAT 1 08 Feb 02:53:36 02:57:11 21° 264° (W) 03:00:47 437.325
PHONESAT 2.4 08 Feb 03:03:29 03:05:54 19° 345° (NNW) 03:08:20 2401.200-2431.200
BEESAT 08 Feb 03:04:23 03:07:14 16° 265° (W) 03:10:05 436.000
BEESAT 3 08 Feb 03:07:18 03:11:02 41° 60° (ENE) 03:14:45 437.485
Oscar 19 08 Feb 03:12:25 03:15:14 15° 293° (WNW) 03:18:03 437.125/150
MOZHAYETS 4 08 Feb 03:18:45 03:22:39 29° 72° (ENE) 03:26:34
JAS-2 08 Feb 03:23:52 03:27:51 20° 293° (WNW) 03:31:39 435.910
Gurwin Techsat 1B 08 Feb 03:24:01 03:28:45 34° 288° (WNW) 03:33:29 435.225
Cosmos 2491 08 Feb 03:26:27 03:35:11 76° 266° (W) 03:43:56 435.465 / 435.565
BEESAT 2 08 Feb 03:27:28 03:31:17 44° 60° (ENE) 03:35:04 435.950
STARS 08 Feb 03:29:36 03:33:57 62° 76° (ENE) 03:38:18 437.465
KKS-1 08 Feb 03:40:51 03:45:09 46° 260° (W) 03:49:27 437.445
YUBILEINY 08 Feb 04:08:52 04:17:35 74° 276° (W) 04:26:26 435.215
CUSAT 1 08 Feb 04:12:22 04:15:57 14° 293° (WNW) 04:19:37 437.405
ITAMSAT 1 08 Feb 04:15:33 04:19:20 21° 292° (WNW) 04:23:07 435.822/435.867
AO-7 08 Feb 04:24:18 04:32:40 85° 107° (ESE) 04:40:58 29.400- 29.500
DANDE 08 Feb 04:25:44 04:30:38 18° 293° (WNW) 04:35:57 436.750
M-CUBED/EXP-1 PRIME 08 Feb 04:30:39 04:34:03 65° 105° (ESE) 04:37:40 437.505
AUBIESAT-1 08 Feb 04:42:23 04:45:51 78° 107° (ESE) 04:49:32 437.475
PHONESAT 2.4 08 Feb 04:42:30 04:44:00 13° 1° (N) 04:45:30 2401.200-2431.200
BEESAT 3 08 Feb 04:47:48 04:48:21 10° 253° (WSW) 04:48:54 437.485
SO-50 08 Feb 04:48:27 04:52:53 37° 112° (ESE) 04:57:25 436.795
MOZHAYETS 4 08 Feb 04:56:34 04:59:46 19° 265° (W) 05:03:00
HORYU 2 08 Feb 05:04:49 05:09:13 68° 284° (WNW) 05:13:38 437.375
AIST 2 08 Feb 05:05:43 05:09:45 52° 62° (ENE) 05:13:43 435.215
Cosmos 2504 08 Feb 05:08:19 05:16:25 58° 90° (E) 05:24:58 435.465 / 435.565
CUBESAT XI-V 08 Feb 05:29:42 05:34:22 81° 76° (ENE) 05:39:04 437.345
CUTE-I 08 Feb 05:38:19 05:41:30 16° 95° (E) 05:44:39 437.470
Cubesat XI-IV 08 Feb 05:50:35 05:54:40 22° 96° (E) 05:58:43 437.490
LilacSat-2 08 Feb 06:07:31 06:10:34 23° 97° (E) 06:13:36 437.200
PHONESAT 2.4 08 Feb 06:19:24 06:22:02 22° 18° (NNE) 06:24:41 2401.200-2431.200
AO-7 08 Feb 06:19:33 06:24:22 17° 302° (WNW) 06:29:11 29.400- 29.500
SO-50 08 Feb 06:29:49 06:33:28 21° 306° (NW) 06:37:10 436.795
GOMX 1 08 Feb 06:46:52 06:49:37 16° 94° (E) 06:52:18 467.674
STRAND 1 08 Feb 06:57:29 07:02:35 83° 76° (ENE) 07:07:43 437.568
Cosmos 2504 08 Feb 07:03:38 07:10:11 25° 287° (WNW) 07:17:02 435.465 / 435.565
BRITE-PL 08 Feb 07:07:17 07:11:59 74° 102° (ESE) 07:16:17 437.365/2234.400
CUTE-I 08 Feb 07:16:32 07:21:41 48° 287° (WNW) 07:26:49 437.470
JUGNU 08 Feb 07:18:00 07:20:18 12° 161° (SSE) 07:22:37 437.505
Cubesat XI-IV 08 Feb 07:29:51 07:34:43 35° 288° (WNW) 07:39:33 437.490
O/OREOS (USA 219) 08 Feb 07:38:04 07:41:34 23° 102° (ESE) 07:45:06 437.305
LilacSat-2 08 Feb 07:42:21 07:44:40 16° 289° (WNW) 07:46:59 437.200
GONETS M04 08 Feb 07:43:46 07:46:46 12° 80° (E) 07:49:46
CANX-2 08 Feb 07:46:24 07:49:19 18° 95° (E) 07:52:14 2200.000
CINEMA 3 08 Feb 07:48:25 07:50:00 12° 94° (E) 07:51:34 145.822/145.860
PHONESAT 2.4 08 Feb 07:56:16 07:59:29 63° 213° (SSW) 08:02:42 2401.200-2431.200
PRISM 08 Feb 07:58:52 08:02:56 62° 258° (WSW) 08:07:05 437.425
DOVE 4 08 Feb 08:14:30 08:18:43 80° 284° (WNW) 08:22:50 437.250
GOMX 1 08 Feb 08:24:01 08:27:44 27° 288° (WNW) 08:31:18 467.674
COMPASS 1 08 Feb 08:35:50 08:39:39 33° 98° (E) 08:43:28 437.405
CUTE 1.7 + AOD 2 08 Feb 08:36:14 08:40:30 69° 101° (E) 08:44:46 437.475
HO-68 08 Feb 08:43:17 08:50:30 75° 104° (ESE) 08:57:40 435.675
SEEDS 08 Feb 08:46:06 08:50:20 66° 100° (E) 08:54:34 437.485
JUGNU 08 Feb 09:04:07 09:08:46 24° 169° (S) 09:13:24 437.505
AAUSAT CUBESAT 2 08 Feb 09:06:05 09:10:16 67° 100° (E) 09:14:27 437.432
TIGRISAT 08 Feb 09:10:43 09:12:17 12° 69° (ENE) 09:13:52 435.000
ZACube-1 08 Feb 09:10:56 09:14:04 20° 97° (E) 09:17:13 437.345
O/OREOS (USA 219) 08 Feb 09:17:17 09:20:49 23° 295° (WNW) 09:24:23 437.305
FUNcube-1 08 Feb 09:20:42 09:24:12 25° 97° (E) 09:27:45 145.935
CANX-2 08 Feb 09:21:30 09:25:07 27° 287° (WNW) 09:28:45 2200.000
CINEMA 3 08 Feb 09:23:25 09:27:13 36° 286° (WNW) 09:31:03 145.822/145.860
GONETS M04 08 Feb 09:33:35 09:42:16 89° 94° (E) 09:51:00
CUBEBUG 2 08 Feb 09:42:56 09:47:06 69° 283° (WNW) 09:51:21 437.445
HUMSAT D 08 Feb 09:47:07 09:49:16 14° 95° (E) 09:51:26 437.325/437.525
UWE-3 08 Feb 09:47:43 09:51:57 88° 277° (W) 09:56:15 435.000/436.395/437.385
AO-85 08 Feb 09:48:54 09:52:56 23° 108° (ESE) 09:57:08 145.980
UNISAT 6 08 Feb 09:51:51 09:55:58 41° 75° (ENE) 10:00:01 437.425
Oscar 11 08 Feb 09:56:03 10:00:23 78° 284° (WNW) 10:04:44 145.826/435.025
AIST 1 08 Feb 09:57:44 09:58:05 10° 86° (E) 09:58:26
COMPASS 1 08 Feb 10:12:34 10:14:54 15° 290° (WNW) 10:17:13 437.405
Cosmos 2499 08 Feb 10:14:37 10:23:05 73° 93° (E) 10:31:56 435.465 / 435.565
RS-15 08 Feb 10:15:12 10:23:02 23° 102° (ESE) 10:31:02 29.354- 29.394
PCSat 08 Feb 10:15:56 10:20:07 23° 106° (ESE) 10:24:20 145.827
POLYITAN 1 08 Feb 10:27:42 10:31:04 23° 72° (ENE) 10:34:25 437.675
QB50P2 08 Feb 10:28:22 10:31:48 24° 72° (ENE) 10:35:14 145.880/145.840
HO-68 08 Feb 10:33:14 10:37:23 17° 299° (WNW) 10:41:33 435.675
DELFI C3 08 Feb 10:35:10 10:39:01 45° 285° (WNW) 10:42:53 145.870
SRMSAT 08 Feb 10:36:45 10:41:04 21° 166° (SSE) 10:45:21 437.500
ANTELSAT 08 Feb 10:36:46 10:41:01 51° 260° (W) 10:45:13 437.575/2403.000
BUGSAT 1 08 Feb 10:41:58 10:44:27 15° 70° (ENE) 10:46:54 437.445
TIGRISAT 08 Feb 10:44:25 10:48:35 43° 260° (W) 10:52:41 435.000
ZACube-1 08 Feb 10:46:52 10:50:15 24° 288° (WNW) 10:53:40 437.345
JUGNU 08 Feb 10:52:11 10:57:19 31° 179° (S) 11:02:25 437.505
VELOX 1 08 Feb 10:53:57 10:56:22 14° 95° (E) 10:58:47 145.980
FUNcube-1 08 Feb 10:57:16 11:00:16 19° 289° (WNW) 11:03:17 145.935
POPSAT HIP 1 08 Feb 10:57:48 11:01:57 55° 76° (ENE) 11:06:05 437.405
NANOSAT C BR1 08 Feb 11:03:38 11:07:49 64° 76° (ENE) 11:12:00 145.865
DUCHIFAT 1 08 Feb 11:05:54 11:10:05 65° 76° (ENE) 11:14:16 145.980
AISAT 08 Feb 11:09:15 11:12:50 24° 97° (E) 11:16:22 437.250
50 SAT 08 Feb 11:10:05 11:13:24 28° 98° (E) 11:16:43 437.505
QB50P1 08 Feb 11:10:31 11:14:46 83° 77° (ENE) 11:19:01 145.935-145.965
HUMSAT D 08 Feb 11:21:11 11:24:56 33° 286° (WNW) 11:28:43 437.325/437.525
ESTCUBE 1 08 Feb 11:23:14 11:27:31 40° 99° (E) 11:31:46 437.505/2401.250
AO-85 08 Feb 11:28:20 11:33:12 37° 302° (WNW) 11:38:16 145.980
AIST 1 08 Feb 11:30:59 11:35:10 45° 278° (W) 11:39:24
UNISAT 6 08 Feb 11:31:14 11:32:47 12° 266° (W) 11:34:18 437.425
UKube-1 08 Feb 11:31:52 11:35:54 39° 99° (E) 11:39:56 .
CUBEBUG 1 08 Feb 11:33:54 11:37:58 38° 99° (E) 11:41:59 437.445
GONETS M04 08 Feb 11:36:12 11:40:04 13° 291° (WNW) 11:43:58
DX 1 08 Feb 11:40:25 11:44:44 63° 101° (ESE) 11:49:00 434.975-435.025
SPROUT 08 Feb 11:45:29 11:48:04 16° 95° (E) 11:50:39 437.525
JAS-2 08 Feb 11:46:38 11:48:50 11° 62° (ENE) 11:51:00 435.910
PCSat 08 Feb 11:58:21 12:03:15 35° 300° (WNW) 12:08:11 145.827
POLYITAN 1 08 Feb 12:03:34 12:06:45 21° 264° (W) 12:09:57 437.675
QB50P2 08 Feb 12:04:25 12:07:31 20° 264° (W) 12:10:36 145.880/145.840
Cosmos 2499 08 Feb 12:11:11 12:16:55 19° 289° (WNW) 12:22:48 435.465 / 435.565
BUGSAT 1 08 Feb 12:15:45 12:19:32 31° 262° (W) 12:23:17 437.445
RS-15 08 Feb 12:23:08 12:34:06 74° 298° (WNW) 12:45:43 29.354- 29.394
SRMSAT 08 Feb 12:24:37 12:29:44 30° 176° (S) 12:34:51 437.500
VELOX 1 08 Feb 12:28:53 12:32:54 35° 287° (WNW) 12:36:53 145.980
JUGNU 08 Feb 12:41:03 12:45:51 26° 189° (S) 12:50:39 437.505
Oscar 19 08 Feb 12:42:20 12:47:07 38° 72° (ENE) 12:51:53 437.125/150
50 SAT 08 Feb 12:45:15 12:47:08 13° 290° (WNW) 12:49:00 437.505
AISAT 08 Feb 12:45:48 12:49:09 21° 289° (WNW) 12:52:28 437.250
Gurwin Techsat 1B 08 Feb 13:00:25 13:04:12 20° 68° (ENE) 13:08:00 435.225
ESTCUBE 1 08 Feb 13:01:33 13:03:55 14° 292° (WNW) 13:06:17 437.505/2401.250
UKube-1 08 Feb 13:09:34 13:11:34 13° 292° (WNW) 13:13:34 .
CUSAT 1 08 Feb 13:11:27 13:16:48 46° 77° (ENE) 13:20:50 437.405
CUBEBUG 1 08 Feb 13:11:42 13:13:52 14° 292° (WNW) 13:16:02 437.445
SPROUT 08 Feb 13:20:19 13:24:02 30° 287° (WNW) 13:27:44 437.525
ITUPSAT 1 08 Feb 13:23:39 13:25:30 12° 94° (E) 13:27:22 437.325
JAS-2 08 Feb 13:25:03 13:32:52 77° 75° (ENE) 13:40:12 435.910
DANDE 08 Feb 13:29:44 13:36:03 40° 75° (ENE) 13:40:53 436.750
AO-7 08 Feb 13:31:16 13:33:10 11° 54° (NE) 13:35:03 29.400- 29.500
BEESAT 08 Feb 13:32:16 13:35:14 16° 95° (E) 13:38:10 436.000
TISAT 1 08 Feb 13:35:37 13:39:43 59° 284° (WNW) 13:43:48 437.305
ITAMSAT 1 08 Feb 13:47:40 13:52:09 30° 71° (ENE) 13:56:38 435.822/435.867
SRMSAT 08 Feb 14:13:25 14:18:28 29° 186° (S) 14:23:33 437.500
SWISSCUBE 08 Feb 14:22:48 14:27:36 72° 102° (ESE) 14:32:23 437.505
Oscar 19 08 Feb 14:22:56 14:26:28 19° 265° (W) 14:30:02 437.125/150
Cosmos 2491 08 Feb 14:25:39 14:32:15 25° 84° (E) 14:38:50 435.465 / 435.565
YUBILEINY 08 Feb 14:26:57 14:35:13 43° 79° (ENE) 14:43:24 435.215
JUGNU 08 Feb 14:31:08 14:34:19 15° 197° (SSW) 14:37:30 437.505
Gurwin Techsat 1B 08 Feb 14:38:56 14:43:49 38° 261° (W) 14:48:45 435.225
RS-15 08 Feb 14:41:46 14:48:55 18° 323° (NW) 14:56:19 29.354- 29.394
CUSAT 1 08 Feb 14:56:41 14:57:59 11° 280° (W) 14:59:12 437.405
ITUPSAT 1 08 Feb 14:58:52 15:03:31 50° 286° (WNW) 15:08:09 437.325
SO-50 08 Feb 15:05:45 15:10:31 79° 64° (ENE) 15:15:05 436.795
BEESAT 08 Feb 15:08:39 15:13:04 38° 287° (WNW) 15:17:28 436.000
Cosmos 2504 08 Feb 15:12:04 15:15:54 14° 68° (ENE) 15:19:38 435.465 / 435.565
M-CUBED/EXP-1 PRIME 08 Feb 15:12:46 15:16:07 29° 71° (ENE) 15:19:15 437.505
JAS-2 08 Feb 15:13:34 15:18:07 16° 266° (W) 15:22:33 435.910
DANDE 08 Feb 15:13:49 15:18:17 20° 278° (W) 15:22:03 436.750
AO-7 08 Feb 15:16:08 15:24:26 69° 70° (ENE) 15:32:43 29.400- 29.500
MOZHAYETS 4 08 Feb 15:21:53 15:23:13 11° 93° (E) 15:24:34
AUBIESAT-1 08 Feb 15:23:58 15:27:23 32° 71° (ENE) 15:30:36 437.475
STARS 08 Feb 15:26:06 15:29:07 18° 96° (E) 15:32:06 437.465
ITAMSAT 1 08 Feb 15:27:27 15:31:32 24° 263° (W) 15:35:39 435.822/435.867
ISS 08 Feb 15:32:39 15:35:49 50° 130° (SE) 15:38:57 145.825
KKS-1 08 Feb 15:37:40 15:41:59 52° 100° (E) 15:46:17 437.445
HORYU 2 08 Feb 15:56:48 16:01:04 50° 75° (ENE) 16:05:20 437.375
SRMSAT 08 Feb 16:03:06 16:07:08 19° 195° (SSW) 16:11:11 437.500
Cosmos 2491 08 Feb 16:19:58 16:28:26 55° 279° (W) 16:36:55 435.465 / 435.565
YUBILEINY 08 Feb 16:24:07 16:31:39 33° 274° (W) 16:39:10 435.215
M-CUBED/EXP-1 PRIME 08 Feb 16:49:02 16:50:41 12° 258° (WSW) 16:52:18 437.505
BEESAT 3 08 Feb 16:52:56 16:56:28 31° 112° (ESE) 17:00:00 437.485
CUTE-I 08 Feb 16:54:57 16:57:52 15° 66° (ENE) 17:00:47 437.470
MOZHAYETS 4 08 Feb 16:56:06 17:00:35 50° 285° (WNW) 17:05:03
AUBIESAT-1 08 Feb 17:00:59 17:01:55 11° 259° (W) 17:02:50 437.475
STARS 08 Feb 17:01:44 17:05:26 28° 288° (WNW) 17:09:08 437.465
Cosmos 2504 08 Feb 17:01:48 17:10:24 88° 266° (W) 17:18:20 435.465 / 435.565
Cubesat XI-IV 08 Feb 17:07:10 17:10:58 20° 68° (ENE) 17:14:47 437.490
ISS 08 Feb 17:11:03 17:12:27 12° 325° (NW) 17:13:52 145.825
AO-7 08 Feb 17:11:56 17:17:35 20° 264° (W) 17:23:17 29.400- 29.500
BEESAT 2 08 Feb 17:14:13 17:17:52 35° 112° (ESE) 17:21:33 435.950
KKS-1 08 Feb 17:17:20 17:18:03 10° 293° (WNW) 17:18:45 437.445
CUBESAT XI-V 08 Feb 17:32:44 17:36:57 32° 98° (E) 17:41:07 437.345
GOMX 1 08 Feb 17:49:12 17:51:50 14° 68° (ENE) 17:54:27 467.674
O/OREOS (USA 219) 08 Feb 17:54:01 17:57:10 18° 64° (ENE) 18:00:20 437.305
BRITE-PL 08 Feb 18:10:23 18:15:49 48° 74° (ENE) 18:21:14 437.365/2234.400
LilacSat-2 08 Feb 18:16:56 18:20:46 78° 259° (W) 18:24:36 437.200
BEESAT 3 08 Feb 18:31:48 18:34:15 16° 305° (NW) 18:36:43 437.485
CUTE-I 08 Feb 18:32:15 18:37:24 52° 260° (W) 18:42:36 437.470
Cubesat XI-IV 08 Feb 18:45:49 18:50:43 38° 261° (W) 18:55:39 437.490
BEESAT 2 08 Feb 18:53:34 18:55:51 15° 306° (NW) 18:58:09 435.950
AIST 2 08 Feb 18:57:25 19:01:26 48° 113° (ESE) 19:05:27 435.215
Cosmos 2504 08 Feb 18:59:42 19:02:18 12° 282° (WNW) 19:04:51 435.465 / 435.565
HO-68 08 Feb 19:06:00 19:12:01 30° 66° (ENE) 19:18:04 435.675
CUBESAT XI-V 08 Feb 19:10:50 19:14:02 18° 290° (WNW) 19:17:14 437.345
DOVE 4 08 Feb 19:12:54 19:17:57 53° 75° (ENE) 19:22:48 437.250
STRAND 1 08 Feb 19:14:14 19:19:12 47° 100° (E) 19:24:08 437.568
RS-15 08 Feb 19:21:20 19:29:32 20° 39° (NE) 19:37:44 29.354- 29.394
COMPASS 1 08 Feb 19:23:42 19:24:32 11° 68° (ENE) 19:25:23 437.405
CUTE 1.7 + AOD 2 08 Feb 19:23:45 19:26:59 22° 72° (ENE) 19:30:13 437.475
GOMX 1 08 Feb 19:23:58 19:29:22 60° 259° (W) 19:34:39 467.674
O/OREOS (USA 219) 08 Feb 19:32:31 19:36:34 31° 257° (WSW) 19:40:37 437.305
SEEDS 08 Feb 19:32:50 19:35:55 20° 72° (ENE) 19:39:02 437.485
PRISM 08 Feb 19:46:59 19:50:34 28° 98° (E) 19:54:08 437.425
BRITE-PL 08 Feb 19:50:37 19:54:22 18° 266° (W) 19:58:10 437.365/2234.400
AAUSAT CUBESAT 2 08 Feb 19:51:26 19:54:26 20° 71° (ENE) 19:57:26 437.432
GONETS M04 08 Feb 19:51:57 19:59:43 34° 77° (ENE) 20:07:27
AO-85 08 Feb 20:06:22 20:11:08 43° 58° (ENE) 20:15:29 145.980
CANX-2 08 Feb 20:07:27 20:11:39 85° 258° (WSW) 20:15:52 2200.000
Cosmos 2499 08 Feb 20:16:26 20:21:28 17° 70° (ENE) 20:26:17 435.465 / 435.565
CINEMA 3 08 Feb 20:18:06 20:22:53 89° 268° (W) 20:27:27 145.822/145.860
CUBEBUG 2 08 Feb 20:35:02 20:39:13 44° 75° (ENE) 20:43:19 437.445
AIST 2 08 Feb 20:38:29 20:40:09 12° 308° (NW) 20:41:50 435.215
UWE-3 08 Feb 20:39:03 20:42:57 34° 74° (ENE) 20:46:46 435.000/436.395/437.385
Oscar 11 08 Feb 20:44:54 20:48:49 35° 74° (ENE) 20:52:45 145.826/435.025
PCSat 08 Feb 20:51:42 20:57:00 52° 63° (ENE) 21:02:15 145.827
HO-68 08 Feb 20:52:48 20:59:26 41° 260° (W) 21:06:08 435.675
DOVE 4 08 Feb 20:53:19 20:55:44 13° 266° (W) 20:58:07 437.250
STRAND 1 08 Feb 20:54:54 20:57:56 16° 293° (WNW) 21:00:57 437.568
COMPASS 1 08 Feb 20:55:43 20:59:40 44° 261° (W) 21:03:38 437.405
CUTE 1.7 + AOD 2 08 Feb 20:59:29 21:02:41 21° 264° (W) 21:05:54 437.475
SEEDS 08 Feb 21:08:12 21:11:28 22° 264° (W) 21:14:45 437.485
DELFI C3 08 Feb 21:15:21 21:19:04 41° 75° (ENE) 21:22:50 145.870
PRISM 08 Feb 21:22:58 21:25:38 17° 290° (WNW) 21:28:19 437.425
AAUSAT CUBESAT 2 08 Feb 21:26:30 21:29:45 23° 264° (W) 21:33:02 437.432
RS-15 08 Feb 21:32:03 21:44:20 75° 62° (ENE) 21:56:38 29.354- 29.394
ZACube-1 08 Feb 21:35:51 21:40:05 66° 260° (W) 21:44:15 437.345
AIST 1 08 Feb 21:44:46 21:48:15 23° 79° (ENE) 21:51:41
FUNcube-1 08 Feb 21:45:44 21:49:52 51° 260° (W) 21:53:57 145.935
GONETS M04 08 Feb 21:48:24 21:56:27 42° 272° (W) 22:04:33
AO-85 08 Feb 21:48:28 21:51:05 15° 255° (WSW) 21:53:35 145.980
UNISAT 6 08 Feb 21:50:48 21:53:06 14° 95° (E) 21:55:26 437.425
AISAT 08 Feb 22:03:14 22:04:28 11° 67° (ENE) 22:05:43 437.250
HUMSAT D 08 Feb 22:06:04 22:10:09 73° 77° (ENE) 22:14:13 437.325/437.525
Cosmos 2499 08 Feb 22:07:08 22:15:22 71° 268° (W) 22:22:56 435.465 / 435.565
CUBEBUG 2 08 Feb 22:14:49 22:15:57 11° 266° (W) 22:17:04 437.445
UWE-3 08 Feb 22:17:09 22:19:26 14° 265° (W) 22:21:41 435.000/436.395/437.385
ESTCUBE 1 08 Feb 22:17:49 22:20:56 19° 70° (ENE) 22:24:04 437.505/2401.250
UKube-1 08 Feb 22:21:48 22:24:29 16° 69° (ENE) 22:27:09 .
Oscar 11 08 Feb 22:22:54 22:25:01 13° 266° (W) 22:27:07 145.826/435.025
CUBEBUG 1 08 Feb 22:25:10 22:27:52 16° 69° (ENE) 22:30:33 437.445
DX 1 08 Feb 22:30:28 22:34:04 25° 71° (ENE) 22:37:39 434.975-435.025
ANTELSAT 08 Feb 22:34:08 22:38:22 49° 100° (E) 22:42:40 437.575/2403.000
PCSat 08 Feb 22:36:56 22:39:53 15° 256° (WSW) 22:42:49 145.827
TIGRISAT 08 Feb 22:41:26 22:45:43 58° 101° (E) 22:50:05 435.000
POPSAT HIP 1 08 Feb 22:50:13 22:52:28 14° 95° (E) 22:54:42 437.405
NANOSAT C BR1 08 Feb 22:55:24 22:58:02 16° 96° (E) 23:00:38 145.865
DUCHIFAT 1 08 Feb 22:57:24 23:00:02 16° 95° (E) 23:02:39 145.980
QB50P1 08 Feb 23:02:10 23:05:20 21° 96° (E) 23:08:30 145.935-145.965
50 SAT 08 Feb 23:17:48 23:21:27 64° 259° (W) 23:25:08 437.505
VELOX 1 08 Feb 23:19:31 23:24:00 87° 264° (W) 23:28:29 145.980
AIST 1 08 Feb 23:22:34 23:25:38 19° 271° (W) 23:28:41
UNISAT 6 08 Feb 23:25:53 23:29:52 36° 286° (WNW) 23:33:54 437.425
AISAT 08 Feb 23:36:07 23:40:28 51° 260° (W) 23:44:50 437.250
ISS 08 Feb 23:41:18 23:44:22 39° 43° (NE) 23:47:26 145.825
RS-15 08 Feb 23:46:35 23:55:38 25° 258° (WSW) 00:04:43 29.354- 29.394
POLYITAN 1 08 Feb 23:53:20 23:57:33 80° 283° (WNW) 00:01:45 437.675
ESTCUBE 1 08 Feb 23:53:32 23:57:28 30° 262° (W) 00:01:27 437.505/2401.250
QB50P2 08 Feb 23:54:04 23:58:17 76° 283° (WNW) 00:02:28 145.880/145.840
UKube-1 08 Feb 23:56:22 00:00:14 32° 261° (W) 00:04:07 .
CUBEBUG 1 08 Feb 23:59:48 00:03:49 34° 262° (W) 00:07:51 437.445
BUGSAT 1 09 Feb 00:03:15 00:07:12 55° 101° (E) 00:11:07 437.445
DX 1 09 Feb 00:06:52 00:10:08 21° 263° (W) 00:13:26 434.975-435.025
SPROUT 09 Feb 00:07:14 00:11:33 89° 260° (W) 00:15:52 437.525
ANTELSAT 09 Feb 00:13:39 00:14:38 11° 292° (WNW) 00:15:37 437.575/2403.000
TISAT 1 09 Feb 00:21:14 00:25:14 43° 75° (ENE) 00:29:15 437.305
POPSAT HIP 1 09 Feb 00:24:32 00:28:17 32° 287° (WNW) 00:32:00 437.405
CUSAT 1 09 Feb 00:27:31 00:30:07 12° 81° (E) 00:32:44 437.405
NANOSAT C BR1 09 Feb 00:30:09 00:33:44 28° 287° (WNW) 00:37:19 145.865
PHONESAT 2.4 09 Feb 00:30:40 00:33:52 51° 146° (SE) 00:37:03 2401.200-2431.200
DUCHIFAT 1 09 Feb 00:32:09 00:35:42 28° 287° (WNW) 00:39:16 145.980
QB50P1 09 Feb 00:37:43 00:40:59 22° 289° (WNW) 00:44:15 145.935-145.965
Oscar 19 09 Feb 01:00:34 01:04:31 22° 96° (E) 01:08:25 437.125/150
ISS 09 Feb 01:19:28 01:20:30 11° 235° (SW) 01:21:32 145.825
SWISSCUBE 09 Feb 01:23:25 01:27:51 40° 73° (ENE) 01:32:18 437.505
Gurwin Techsat 1B 09 Feb 01:23:45 01:25:55 12° 93° (E) 01:28:05 435.225
ITUPSAT 1 09 Feb 01:59:16 02:04:01 87° 256° (WSW) 02:08:48 437.325
TISAT 1 09 Feb 02:00:01 02:01:02 11° 266° (W) 02:02:03 437.305
CUSAT 1 09 Feb 02:03:31 02:11:05 80° 95° (E) 02:19:17 437.405
ITAMSAT 1 09 Feb 02:07:15 02:10:45 18° 95° (E) 02:14:14 435.822/435.867
PHONESAT 2.4 09 Feb 02:08:28 02:11:15 25° 340° (NNW) 02:14:02 2401.200-2431.200
BEESAT 09 Feb 02:08:33 02:13:15 66° 258° (WSW) 02:18:00 436.000
JAS-2 09 Feb 02:27:41 02:33:12 71° 285° (WNW) 02:38:21 435.910
KKS-1 09 Feb 02:30:24 02:33:55 23° 71° (ENE) 02:37:27 437.445
